Regional Weather Roundup
Issued by NWS Upton, NY

Home | Current Version | Previous Version | Text Only | Print | Product List | Glossary On
Versions: 1 2 3 4 5 6 7 8 9 10 11 12 13 14 15 16 17 18 19 20 21 22 23 24 25 26 27 28 29 30 31 32 33 34 35 36 37 38 39 40 41 42 43 44 45 46 47 48 49 50
000
ASUS41 KOKX 222005
RWROKX

REGIONAL WEATHER ROUNDUP
NATIONAL WEATHER SERVICE NEW YORK NY
400 PM EDT TUE JUL 22 2014

NOTE: "FAIR" INDICATES FEW OR NO CLOUDS BELOW 12,000 FEET WITH NO
SIGNIFICANT WEATHER AND/OR OBSTRUCTIONS TO VISIBILITY.

NYZ071-072-176-178-NJZ106-104-222100-
NEW YORK CITY METRO AREA


CITY           SKY/WX    TMP DP  RH WIND       PRES   REMARKS
CENTRAL PARK   MOSUNNY   84  67  56 VRB5      30.11F
LAGUARDIA APRT MOSUNNY   84  66  54 S17       30.08F
KENNEDY INTL   MOSUNNY   81  66  60 S20       30.11F
NEWARK/LIBERTY MOSUNNY   89  66  46 SW9       30.07F HX  91
BRNX BOT. GARD   N/A     84  66  54 SE9       30.08F
TETERBORO      MOSUNNY   89  67  47 S13       30.06F HX  92
$$

NYZ177-179-078>081-222100-
LONG ISLAND NEW YORK

CITY           SKY/WX    TMP DP  RH WIND       PRES   REMARKS
FARMINGDALE    SUNNY     80  67  64 SW12      30.10F
ISLIP          MOSUNNY   82  66  58 S12       30.09F
SHIRLEY        SUNNY     79  66  64 S15       30.11F
WESTHAMPTON    SUNNY     79  66  64 SW13      30.12F
MONTAUK POINT    N/A     77  67  71 SW8       30.11F
$$

NYZ052-065-067-222100-
HUDSON VALLEY

CITY           SKY/WX    TMP DP  RH WIND       PRES   REMARKS
WHITE PLAINS   MOSUNNY   83  67  58 S12G17    30.08F
NEWBURGH       MOSUNNY   86  70  58 W14       30.08F HX  90
MONTGOMERY     MOSUNNY   86  70  58 S10       30.06F HX  90
POUGHKEEPSIE   MOSUNNY   88  68  51 VRB7      30.04F HX  91
ALBANY         MOSUNNY   86  68  54 S8        30.03F
$$

NJZ001-105-106-008-010-013-015-019>022-104-222100-
NEW JERSEY

CITY           SKY/WX    TMP DP  RH WIND       PRES   REMARKS
NEWARK/LIBERTY MOSUNNY   89  66  46 SW9       30.07F HX  91
TETERBORO      MOSUNNY   89  67  47 S13       30.06F HX  92
CALDWELL       MOSUNNY   86  66  51 CALM      30.08F
MORRISTOWN     PTSUNNY   88  68  51 SW13      30.09F HX  91
SOMERVILLE     SUNNY     86  67  52 S6        30.07F
LINDEN         FAIR      89  66  46 W7        30.09F HX  92
SUSSEX         PTSUNNY   86  69  56 S8        30.08F HX  90
ANDOVER          N/A     84  68  58 SW6       30.10F
TRENTON        MOSUNNY   85  67  54 SW7       30.10F
MILLVILLE      SUNNY     83  65  54 S7        30.14F
ATLANTIC CITY  SUNNY     82  64  54 S13       30.14F
WRIGHTSTOWN    PTSUNNY   87  68  54 SW9       30.09F HX  90
TOMS RIVER     MOSUNNY   84  66  54 S7        30.12S
BELMAR         SUNNY     82  66  57 SE9       30.11F
$$

PAZ047>061-062-071-222100-
EASTERN PENNSYLVANIA

CITY           SKY/WX    TMP DP  RH WIND       PRES   REMARKS
PHILADELPHIA   MOSUNNY   87  64  46 S10       30.11F
ALLENTOWN      MOSUNNY   86  69  56 W9        30.10F HX  90
SCRANTON       MOSUNNY   87  67  51 SW9       30.10F HX  90
$$

CTZ002-004>006-009-010-012-RIZ004-006-007-MAZ004-011-015-222100-
SOUTHERN NEW ENGLAND
 IN CT

CITY           SKY/WX    TMP DP  RH WIND       PRES   REMARKS
BRADLEY INTL   PTSUNNY   90  65  43 SW9       30.04F HX  92
HARTFORD       MOSUNNY   87  64  46 SW7       30.04F
DANBURY        MOSUNNY   85  66  53 S12       30.09F
WTRBRY/OXFORD  MOSUNNY   84  68  58 S8        30.12F
BRIDGEPORT     SUNNY     89  66  46 SW10      30.07F HX  91
MERIDEN        SUNNY     87  67  51 SW7       30.06F HX  90
NEW HAVEN      MOSUNNY   85  67  54 SW7       30.08F
CHESTER        FAIR      84  64  51 SW7       30.10S
GROTON         SUNNY     77  68  73 S8        30.08F
WILLIMANTIC    MOSUNNY   87  64  46 S10       30.06F

 IN RI

CITY           SKY/WX    TMP DP  RH WIND       PRES   REMARKS
PROVIDENCE     MOSUNNY   87  68  52 SW12      30.06F HX  90
BLOCK ISLAND   SUNNY     75  64  69 SW16G23   30.10F
WESTERLY       SUNNY     80  66  62 S12       30.10F

 IN MA

CITY           SKY/WX    TMP DP  RH WIND       PRES   REMARKS
BOSTON         MOSUNNY   79  67  66 E14       30.04F
WORCESTER      SUNNY     85  61  44 W7        30.09F
WESTFIELD      MOSUNNY   89  63  41 S12       30.04F HX  90
PROVINCETOWN   SUNNY     82  68  61 S10G17    30.07F
NANTUCKET      SUNNY     71  65  81 SW13      30.11F
$$

ANZ330-335-338-340-345-350-353-355-222100-
COASTAL MARINE OBSERVATIONS


STATION/POSITION TIME  SKY/WX   TEMP    WIND        PRES    VSBY  WAVE
                                AIR SEA DIR/SP/G                  HT/PER
                 (UTC)          (F)     (DEG/KT/KT) (MB)    (MI)  (FT/S)
NY HARB ENTRANCE NOT AVBL
4S FIRE IS       NOT AVBL
23SW MTP         2000            73 71              1019.1          2/ 7
HUDSON CANYON    2000            74 74  220/  8/ 10 1020.8          2/ 7
EXECUTION ROCKS  2000            80 72  210/ 12/ 17   N/A
WESTERN LI SOUND 2000            82     210/ 10/ 12   N/A           0
CENTRAL LI SOUND 1900            77 74  180/  8/ 10   N/A           1
EASTERN LI SOUND 1900            73 68  180/  8/  8   N/A
ROBBINS REEF     2000            78     160/ 18/ 19   N/A
$$


>>>>>>>>>>>>>>>>>>>>>>>>>>>> KEY <<<<<<<<<<<<<<<<<<<<<<<<<<<
>                                                          <
>     SKY/WX - SKY CONDITION/PRESENT WEATHER               <
>     TMP    - TEMPERATURE IN FAHRENHEIT                   <
>     DP     - DEWPOINT IN FAHRENHEIT                      <
>     RH     - RELATIVE HUMIDITY IN PERCENT                <
>     WIND   - DIRECTION AND SPEED IN MPH                  <
>     PRES   - MEAN SEA LEVEL PRESSURE IN INCHES OF HG     <
>     WCI    - WIND CHILL INDEX                            <
>     VSB    - VISIBILITY IN MILES                         <
>     HX     - HEAT INDEX                                  <
>     TC     - TEMPERATURE IN CELSIUS                      <
>     VRB    - VARIABLE WIND DIRECTION                     <
>                                                          <
>>>>>>>>>>>>>>>>>>>>>>>>>>>> KEY <<<<<<<<<<<<<<<<<<<<<<<<<<<




USA.gov is the U.S. government's official web portal to all federal, state and local government web resources and services.